Location: Unspecified
(0.0000°N, 0.0000°E)
Time: 12:08:56
(UTC+00:00)

Envisat - Pass Details

Date: 03 December 2019
Orbit: 764 x 766 km, 98.1° (Epoch: 11 December)

Event Time Altitude Azimuth Distance (km) Brightness Sun altitude
Rises 18:22:47 0° 168° (SSE) 3,231 6.4 -7.6°
Reaches altitude 10° 18:25:06 10° 167° (SSE) 2,302 5.6 -8.2°
Maximum altitude 18:30:11 87° 78° (ENE) 769 3.0 -9.3°
Drops below altitude 10° 18:35:15 10° 349° (N) 2,292 5.4 -10.5°
Sets 18:37:32 0° 349° (N) 3,214 6.1 -11.0°
